Leonie — PHLE — position and weather

sailwx.info

Track history (hours):
 
Tides and Currents Weather Stations Pressure Air Temp Water Temp Dewpoint Dewpoint Depression Visibility Wind Speed Wind Dir Waves Ship Positions

Leonie

Last reported at 2014-Oct-22 14:32 UTC. Time now 2014-Oct-22 15:23 UTC.
Position N 54°18' E 009°40'.

Length 90 m; draft 5.3 m.

Type: Cargo ship. MMSI: 244772000.

Date/timePositionNaut miles runAvg speedWind from/ knotsBaromVisibWave heightAir tempDewpointWater temp
2014-Oct-22 14:32N 54°18' E 009°40'0 0.0
2014-Oct-22 13:26N 54°18' E 009°40'0 0.0
2014-Oct-22 12:32N 54°18' E 009°40'0 0.0
2014-Oct-22 11:32N 54°18' E 009°40'0 0.0
2014-Oct-22 10:20N 54°18' E 009°40'0 0.0
2014-Oct-22 09:32N 54°18' E 009°40'0 0.0
2014-Oct-22 08:20N 54°18' E 009°40'0 0.0
2014-Oct-22 07:32N 54°18' E 009°40'0 0.0
2014-Oct-22 06:32N 54°18' E 009°40'0 0.0
2014-Oct-22 05:26N 54°18' E 009°40'0 0.0
2014-Oct-22 04:26N 54°18' E 009°40'0 0.0
2014-Oct-22 03:32N 54°18' E 009°40'0 0.0
2014-Oct-22 02:32N 54°18' E 009°40'0 0.0
2014-Oct-22 01:32N 54°18' E 009°40'0 0.0
2014-Oct-22 00:32N 54°18' E 009°40'0 0.0
2014-Oct-21 23:32N 54°18' E 009°40'0 0.0
2014-Oct-21 21:32N 54°18' E 009°40'0 0.0
2014-Oct-21 20:32N 54°18' E 009°40'0 0.0
2014-Oct-21 19:32N 54°18' E 009°40'0 0.0
2014-Oct-21 18:32N 54°18' E 009°40'0 0.0
2014-Oct-21 17:26N 54°18' E 009°40'0 0.0
2014-Oct-21 16:32N 54°18' E 009°40'0 0.0
2014-Oct-21 15:33N 54°18' E 009°40'6 6.1
2014-Oct-21 14:33N 54°22' E 009°48'8 7.6
2014-Oct-21 13:33N 54°22' E 010°01'4 4.3
2014-Oct-21 12:34N 54°22' E 010°09'6 6.3
2014-Oct-21 11:34N 54°27' E 010°14'1010.0
2014-Oct-21 10:33N 54°31' E 010°30'1110.8
2014-Oct-21 09:31N 54°33' E 010°49'28 9.5
2014-Oct-21 06:33N 54°30' E 011°37'10 9.5
2014-Oct-21 05:33N 54°28' E 011°53'10 9.4
2014-Oct-21 04:32N 54°29' E 012°10'60 9.9
2014-Oct-20 22:28N 55°00' E 013°38'9 9.9
2014-Oct-20 21:33N 55°04' E 013°52'9 9.4
2014-Oct-20 20:33N 55°08' E 014°07'10 9.7
2014-Oct-20 19:33N 55°15' E 014°18'10 9.7
2014-Oct-20 18:33N 55°23' E 014°29'1010.0
2014-Oct-20 17:33N 55°30' E 014°42'10 9.7
2014-Oct-20 16:33N 55°34' E 014°57'9 9.2
2014-Oct-20 15:33N 55°39' E 015°11'10 9.3
2014-Oct-20 14:28N 55°44' E 015°27'11 9.5
2014-Oct-20 13:18N 55°49' E 015°44'12 9.6
2014-Oct-20 12:04N 55°55' E 016°02'5 9.7
2014-Oct-20 11:33N 55°58' E 016°10'10 9.7
2014-Oct-20 10:32N 56°03' E 016°25'  
2014-Oct-12 18:32N 57°26' E 017°49'1110.8
2014-Oct-12 17:32N 57°16' E 017°41'1010.7
2014-Oct-12 16:33N 57°06' E 017°34'1110.5
2014-Oct-12 15:31N 56°56' E 017°26'  
Track history (hours):
 
Tides and Currents Weather Stations Pressure Air Temp Water Temp Dewpoint Dewpoint Depression Visibility Wind Speed Wind Dir Waves Ship Positions

Leonie

Last reported at 2014-Oct-22 14:32 UTC. Time now 2014-Oct-22 15:23 UTC.
Position N 54°18' E 009°40'.

Length 90 m; draft 5.3 m.

Type: Cargo ship. MMSI: 244772000.

Date/timePositionNaut miles runAvg speedWind from/ knotsBaromVisibWave heightAir tempDewpointWater temp
2014-Oct-22 14:32N 54°18' E 009°40'0 0.0
2014-Oct-22 13:26N 54°18' E 009°40'0 0.0
2014-Oct-22 12:32N 54°18' E 009°40'0 0.0
2014-Oct-22 11:32N 54°18' E 009°40'0 0.0
2014-Oct-22 10:20N 54°18' E 009°40'0 0.0
2014-Oct-22 09:32N 54°18' E 009°40'0 0.0
2014-Oct-22 08:20N 54°18' E 009°40'0 0.0
2014-Oct-22 07:32N 54°18' E 009°40'0 0.0
2014-Oct-22 06:32N 54°18' E 009°40'0 0.0
2014-Oct-22 05:26N 54°18' E 009°40'0 0.0
2014-Oct-22 04:26N 54°18' E 009°40'0 0.0
2014-Oct-22 03:32N 54°18' E 009°40'0 0.0
2014-Oct-22 02:32N 54°18' E 009°40'0 0.0
2014-Oct-22 01:32N 54°18' E 009°40'0 0.0
2014-Oct-22 00:32N 54°18' E 009°40'0 0.0
2014-Oct-21 23:32N 54°18' E 009°40'0 0.0
2014-Oct-21 21:32N 54°18' E 009°40'0 0.0
2014-Oct-21 20:32N 54°18' E 009°40'0 0.0
2014-Oct-21 19:32N 54°18' E 009°40'0 0.0
2014-Oct-21 18:32N 54°18' E 009°40'0 0.0
2014-Oct-21 17:26N 54°18' E 009°40'0 0.0
2014-Oct-21 16:32N 54°18' E 009°40'0 0.0
2014-Oct-21 15:33N 54°18' E 009°40'6 6.1
2014-Oct-21 14:33N 54°22' E 009°48'8 7.6
2014-Oct-21 13:33N 54°22' E 010°01'4 4.3
2014-Oct-21 12:34N 54°22' E 010°09'6 6.3
2014-Oct-21 11:34N 54°27' E 010°14'1010.0
2014-Oct-21 10:33N 54°31' E 010°30'1110.8
2014-Oct-21 09:31N 54°33' E 010°49'28 9.5
2014-Oct-21 06:33N 54°30' E 011°37'10 9.5
2014-Oct-21 05:33N 54°28' E 011°53'10 9.4
2014-Oct-21 04:32N 54°29' E 012°10'60 9.9
2014-Oct-20 22:28N 55°00' E 013°38'9 9.9
2014-Oct-20 21:33N 55°04' E 013°52'9 9.4
2014-Oct-20 20:33N 55°08' E 014°07'10 9.7
2014-Oct-20 19:33N 55°15' E 014°18'10 9.7
2014-Oct-20 18:33N 55°23' E 014°29'1010.0
2014-Oct-20 17:33N 55°30' E 014°42'10 9.7
2014-Oct-20 16:33N 55°34' E 014°57'9 9.2
2014-Oct-20 15:33N 55°39' E 015°11'10 9.3
2014-Oct-20 14:28N 55°44' E 015°27'11 9.5
2014-Oct-20 13:18N 55°49' E 015°44'12 9.6
2014-Oct-20 12:04N 55°55' E 016°02'5 9.7
2014-Oct-20 11:33N 55°58' E 016°10'10 9.7
2014-Oct-20 10:32N 56°03' E 016°25'  
2014-Oct-12 18:32N 57°26' E 017°49'1110.8
2014-Oct-12 17:32N 57°16' E 017°41'1010.7
2014-Oct-12 16:33N 57°06' E 017°34'1110.5
2014-Oct-12 15:31N 56°56' E 017°26'  

Dump ship's entire track history